Location: Gallinara
(44.0333°N, 8.2333°E)
Time: 17:32:04
(UTC+00:00)

NOSS 3-4 (C) - Pass Details

Date: 25 September 2020
Orbit: 886 x 1326 km, 63.4° (Epoch: 27 October)

Event Time Altitude Azimuth Distance (km) Brightness Sun altitude
Rises 03:23:33 0° 322° (NW) 3,839 6.4 -21.0°
Reaches altitude 10° 03:26:04 10° 321° (NW) 2,942 5.8 -20.6°
Maximum altitude 03:33:09 83° 236° (SW) 1,191 3.8 -19.4°
Drops below altitude 10° 03:40:58 10° 149° (SSE) 3,236 6.4 -18.0°
Sets 03:43:52 0° 149° (SSE) 4,244 7.0 -17.5°
